Location: Newark
(25.0000°N, 73.5000°E)
Time: 17:51:26
(UTC+00:00)

RS-15 - Pass Details

Date: 24 February 2020
Orbit: 1898 x 2146 km, 64.8° (Epoch: 04 April)

Event Time Altitude Azimuth Distance (km) Brightness Sun altitude
Rises 14:17:16 0° 206° (SSW) 5,415 10.8 -17.1°
Reaches altitude 10° 14:20:37 10° 207° (SSW) 4,387 10.3 -17.8°
Maximum altitude 14:31:50 82° 295° (WNW) 1,938 8.0 -20.4°
Drops below altitude 10° 14:42:47 10° 23° (NNE) 4,286 9.6 -22.9°
Sets 14:46:02 0° 25° (NNE) 5,285 10.1 -23.6°
